"2009-03-24 00:00:00",737618,10.14,49.36,7.234,1.018,8.78,102.1338,4.745,6.025,36.48,0,109.9,13.46,5.51,11.4
"2009-03-24 00:00:30",737619,9.09,49.62,5.824,1.024,9.64,102.1289,4.732,6.061,36.54,0,109.9,13.46,5.50,11.6
"2009-03-24 00:01:00",737620,9.69,46.99,8.97,1.809,8.35,102.1256,4.724,5.933,35.62,0,109.9,13.47,5.49,9.0
"2009-03-24 00:01:30",737621,7.527,29.21,14.89,1.665,8.05,102.1276,4.729,5.824,34.43,0,109.9,13.47,5.50,351.2
"2009-03-24 00:02:00",737622,7.585,24.7,13.77,2.057,7.112,102.1318,4.74,5.867,34.02,0,109.9,13.47,5.51,346.7
"2009-03-24 00:02:30",737623,6.525,8.16,12.88,2.15,9.05,102.1363,4.751,5.967,34.08,0,109.8,13.47,5.52,330.2
"2009-03-24 00:03:00",737624,11.74,336.9,10.6,1.418,9.75,102.1363,4.751,5.906,32.99,0,109.9,13.47,5.52,298.9
"2009-03-24 00:03:30",737625,9.72,346.1,6.347,1.356,10.29,102.1372,4.753,6.02,32.89,0,109.9,13.47,5.52,308.1
"2009-03-24 00:04:00",737626,6.076,357,19.24,1.349,8.89,102.1513,4.79,5.924,32.47,0,109.9,13.47,5.56,319.0
"2009-03-24 00:04:30",737627,4.203,351.8,10.18,0.926,7.341,102.1697,4.836,5.973,32.44,0,109.9,13.47,5.61,313.8
"2009-03-24 00:05:00",737628,3.962,35.77,15.38,1.423,5.156,102.1702,4.838,5.822,32.33,0,109.9,13.47,5.61,357.8
"2009-03-24 00:05:30",737629,6.001,34.74,9.09,1.564,6.516,102.1702,4.838,5.909,33.34,0,109.9,13.47,5.61,356.7
"2009-03-24 00:06:00",737630,5.738,36.77,8.28,1.367,7.676,102.1787,4.86,5.876,33.45,0,109.9,13.47,5.63,358.8
"2009-03-24 00:06:30",737631,8.47,43.17,10.64,0.968,10,102.2024,4.92,6.134,34.08,0,109.9,13.47,5.69,5.2
"2009-03-24 00:07:00",737632,8.09,37.68,12.91,1.119,10.01,102.2041,4.924,6.158,35.01,0,109.9,13.47,5.69,359.7
"2009-03-24 00:07:30",737633,6.303,39.04,20.4,1.134,8.71,102.2041,4.924,6.104,34.03,0,109.9,13.47,5.69,1.0
"2009-03-24 00:08:00",737634,6.623,43.86,6.504,0.848,5.16,102.2044,4.925,6.023,34.97,0,109.9,13.47,5.69,5.9
"2009-03-24 00:08:30",737635,8.03,42.55,5.768,0.987,6.565,102.216,4.955,5.903,34.71,0,109.9,13.47,5.72,4.5
"2009-03-24 00:09:00",737636,8.7,47.77,6.763,1.372,7.44,102.2222,4.971,6.059,34.7,0,109.9,13.47,5.74,9.8
"2009-03-24 00:09:30",737637,10.13,68.72,6.872,0.84,10.09,102.2234,4.974,6.21,35.36,0,109.9,13.47,5.74,30.7
"2009-03-24 00:10:00",737638,7.412,39.56,26.13,2.506,10.02,102.2214,4.968,6.209,35.11,0,109.9,13.47,5.74,1.6
"2009-03-24 00:10:30",737639,8.82,29.75,10.71,1.917,9.81,102.2205,4.966,6.236,35.04,0,109.9,13.46,5.74,351.8
"2009-03-24 00:11:00",737640,8.69,51.73,9.41,1.289,8.62,102.2211,4.968,6.083,34.32,0,109.9,13.46,5.74,13.7
"2009-03-24 00:11:30",737641,7.631,52.51,6.128,0.768,5.723,102.22,4.965,6.093,34.67,0,109.9,13.46,5.73,14.5
"2009-03-24 00:12:00",737642,7.542,52.62,6.011,0.939,7.026,102.2163,4.955,6.059,35.14,0,109.9,13.46,5.72,14.6
"2009-03-24 00:12:30",737643,6.1,40.53,10.98,1.225,9.51,102.2058,4.929,6.165,35.04,0,109.9,13.46,5.70,2.5
"2009-03-24 00:13:00",737644,7.513,40.26,11.75,1.726,9.11,102.2041,4.924,6.183,34.46,0,109.9,13.46,5.69,2.3
"2009-03-24 00:13:30",737645,9.25,52.33,9.91,1.627,8.76,102.2041,4.924,6.173,34.45,0,109.9,13.46,5.69,14.3
"2009-03-24 00:14:00",737646,9.84,55.1,5.813,1.149,8.42,102.2041,4.924,6.136,35.08,0,109.9,13.47,5.69,17.1
"2009-03-24 00:14:30",737647,10.07,51.6,10.53,1.411,8.27,102.2041,4.924,6.167,35.18,0,109.9,13.47,5.69,13.6
"2009-03-24 00:15:00",737648,9.02,44.25,6.277,1.164,8.9,102.2036,4.923,6.113,34.89,0,109.9,13.47,5.69,6.2
"2009-03-24 00:15:30",737649,8.94,51.62,6.165,0.978,10,102.1866,4.88,6.208,35.1,0,109.9,13.47,5.65,13.6
"2009-03-24 00:16:00",737650,8.34,53.81,6.963,1.197,8.9,102.1719,4.842,6.125,34.94,0,109.9,13.47,5.61,15.8
"2009-03-24 00:16:30",737651,8.72,47.93,9.61,1.607,8.06,102.1702,4.838,6.092,35.01,0,109.9,13.47,5.61,9.9
"2009-03-24 00:17:00",737652,5.851,32.16,7.959,2.101,7.407,102.1702,4.838,6.172,35.13,0,109.9,13.47,5.61,354.2
"2009-03-24 00:17:30",737653,8.57,46.38,11.58,1.856,8.75,102.1702,4.838,6.102,34.67,0,109.9,13.47,5.61,8.4
"2009-03-24 00:18:00",737654,10.6,51.64,6.224,1.231,8.52,102.1702,4.838,6.088,35.28,0,109.9,13.47,5.61,13.6
"2009-03-24 00:18:30",737655,10.32,55.94,5.699,0.989,8.93,102.1702,4.838,6.128,35.69,0,109.9,13.47,5.61,17.9
"2009-03-24 00:19:00",737656,10.21,59.48,4.247,0.959,9.43,102.1516,4.79,6.134,35.83,0,109.9,13.47,5.56,21.5
"2009-03-24 00:19:30",737657,9.41,53.42,5.611,0.861,9.35,102.1366,4.752,6.132,35.82,0,109.9,13.47,5.52,15.4
"2009-03-24 00:20:00",737658,9.84,52.2,5.077,1.076,8.18,102.1363,4.751,6.012,35.79,0,109.9,13.47,5.52,14.2
"2009-03-24 00:20:30",737659,9.43,47.68,7.123,1.264,7.617,102.1318,4.74,6.011,35.84,0,109.9,13.47,5.51,9.7
"2009-03-24 00:21:00",737660,8.83,44.43,6.147,1.1,7.623,102.1174,4.703,5.939,35.85,0,109.9,13.47,5.47,6.4
"2009-03-24 00:21:30",737661,10.39,50.77,6.102,1.048,9,102.1024,4.665,6.004,36.12,0,109.9,13.47,5.43,12.8
"2009-03-24 00:22:00",737662,10.27,47.1,6.299,1.133,8.49,102.1018,4.663,6.022,36.32,0,109.9,13.47,5.43,9.1
"2009-03-24 00:22:30",737663,9.77,43.49,5.68,1.692,9.18,102.0843,4.618,5.991,36.25,0,109.9,13.47,5.39,5.5
"2009-03-24 00:23:00",737664,9.34,48.76,10.84,1.374,8.52,102.0691,4.58,5.922,35.73,0,109.9,13.47,5.35,10.8
"2009-03-24 00:23:30",737665,9.04,29.98,19.33,1.944,9.5,102.0685,4.578,5.96,36.07,0,109.9,13.47,5.35,352.0
"2009-03-24 00:24:00",737666,7.74,26.31,13.11,2.395,9.16,102.0685,4.578,5.891,35.02,0,109.9,13.47,5.35,348.3
"2009-03-24 00:24:30",737667,9.77,36.71,15.69,2.168,7.53,102.0685,4.578,5.859,35.17,0,109.9,13.47,5.35,358.7
"2009-03-24 00:25:00",737668,9.11,13.15,18.8,2.307,8.15,102.0685,4.578,5.807,33.58,0,109.8,13.47,5.35,335.1
"2009-03-24 00:25:30",737669,10.39,20.23,16.02,2.242,9.94,102.0688,4.579,5.912,33.43,0,109.9,13.47,5.35,342.2
"2009-03-24 00:26:00",737670,8.01,14.67,10.71,2.447,9.2,102.0685,4.578,5.833,33.35,0,109.9,13.47,5.35,336.7
"2009-03-24 00:26:30",737671,9.6,40.9,8.93,1.403,9.42,102.0688,4.579,5.935,33.92,0,109.9,13.47,5.35,2.9
"2009-03-24 00:27:00",737672,9.53,50.41,5.839,1.683,7.686,102.0696,4.581,5.821,35.25,0,109.8,13.47,5.35,12.4
"2009-03-24 00:27:30",737673,7.914,43.93,8.49,1.36,7.58,102.0691,4.58,5.758,35.94,0,109.8,13.47,5.35,5.9
"2009-03-24 00:28:00",737674,6.648,37.86,11.95,2.02,6.635,102.0685,4.578,5.757,34.84,0,109.8,13.47,5.35,359.9
"2009-03-24 00:28:30",737675,8.57,51.05,6.668,1.269,7.357,102.0688,4.579,5.845,36.01,0,109.9,13.47,5.35,13.0
"2009-03-24 00:29:00",737676,8.92,48.57,4.733,0.91,8.81,102.0697,4.581,5.902,36.2,0,109.9,13.47,5.35,10.6
"2009-03-24 00:29:30",737677,7.74,44.19,5.928,0.987,9.2,102.0558,4.546,5.892,36.35,0,109.9,13.47,5.31,6.2
"2009-03-24 00:30:00",737678,7.127,10.71,12.46,2.059,9.3,102.0443,4.516,5.846,35.35,0,109.9,13.47,5.28,332.7
"2009-03-24 00:30:30",737679,5.804,32.14,8.03,2.115,6.221,102.0386,4.502,5.647,34.32,0,109.8,13.47,5.27,354.1
"2009-03-24 00:31:00",737680,3.916,22.93,17.77,1.2,5.313,102.0387,4.502,5.676,35.48,0,109.8,13.47,5.27,344.9
"2009-03-24 00:31:30",737681,4.421,4.601,7.163,1.49,6.055,102.033,4.487,5.639,34.95,0,109.8,13.48,5.26,326.6
"2009-03-24 00:32:00",737682,5.592,4.949,14.5,2.248,8.87,102.0341,4.49,5.748,34.95,0,109.8,13.48,5.26,326.9
"2009-03-24 00:32:30",737683,5.929,27.31,13.55,1.301,8.97,102.0375,4.499,5.78,35.16,0,109.8,13.48,5.27,349.3
"2009-03-24 00:33:00",737684,6.455,352.8,17.46,2.093,9.26,102.033,4.488,5.828,35.4,0,109.8,13.48,5.26,314.8
"2009-03-24 00:33:30",737685,2.476,354.2,24.75,1.018,6.367,102.0334,4.488,5.695,34.99,0,109.8,13.48,5.26,316.2
"2009-03-24 00:34:00",737686,2.978,342.5,12.92,0.841,4.021,102.0393,4.504,5.487,34.2,0,109.8,13.51,5.27,304.5
"2009-03-24 00:34:30",737687,6.116,320.3,14.88,1.371,4.601,102.0473,4.524,5.53,33.34,0,109.8,13.52,5.29,282.3
"2009-03-24 00:35:00",737688,7.668,340.4,15.25,1.177,8.82,102.0731,4.59,5.825,32.27,0,109.8,13.48,5.36,302.4
"2009-03-24 00:35:30",737689,12.34,346.4,8.64,2.558,11.04,102.0887,4.63,5.861,31.18,0,109.8,13.48,5.40,308.4
"2009-03-24 00:36:00",737690,14.84,333.6,5.066,1.034,11.08,102.1073,4.677,5.879,29.44,0,109.8,13.48,5.45,295.6
"2009-03-24 00:36:30",737691,14.52,336.6,5.555,1.177,10.8,102.1255,4.724,5.921,29.11,0,109.8,13.48,5.49,298.6
"2009-03-24 00:37:00",737692,15.71,335.6,5.819,1.686,10.91,102.1325,4.742,5.954,28.8,0,109.8,13.48,5.51,297.6
"2009-03-24 00:37:30",737693,17.7,339.8,4.279,1.017,10.62,102.143,4.768,5.954,28.21,0,109.8,13.48,5.54,301.8
"2009-03-24 00:38:00",737694,16.65,339.9,2.693,1.029,10.79,102.156,4.802,5.955,28.32,0,109.8,13.48,5.57,301.9
"2009-03-24 00:38:30",737695,16.13,337,6.424,1.074,10.51,102.158,4.807,5.986,28.6,0,109.8,13.48,5.58,299.0
"2009-03-24 00:39:00",737696,14.26,330.8,8.82,1.147,10.47,102.1608,4.814,5.998,29.67,0,109.9,13.48,5.58,292.8
"2009-03-24 00:39:30",737697,12.73,337.4,10.57,1.576,10.3,102.1871,4.881,6.039,29.8,0,109.8,13.48,5.65,299.4
"2009-03-24 00:40:00",737698,10.99,312.1,4.815,0.727,10.1,102.1948,4.901,6.072,30.32,0,109.8,13.47,5.67,274.1
"2009-03-24 00:40:30",737699,10.55,317.8,4.141,0.645,9.86,102.2101,4.94,6.109,30.77,0,109.8,13.48,5.71,279.8
"2009-03-24 00:41:00",737700,10.5,318.6,4.212,0.985,9.44,102.2278,4.985,6.144,30.77,0,109.8,13.47,5.75,280.6
"2009-03-24 00:41:30",737701,9.02,319.1,5.904,1.229,8.16,102.2261,4.981,6.044,30.82,0,109.8,13.47,5.75,281.1
"2009-03-24 00:42:00",737702,7.546,312.1,4.319,0.496,5.793,102.2391,5.014,5.989,31.1,0,109.8,13.47,5.78,274.1
"2009-03-24 00:42:30",737703,7.779,320.2,5.26,1.587,7.011,102.2618,5.072,5.964,31.16,0,109.8,13.47,5.84,282.2
"2009-03-24 00:43:00",737704,6.784,319.4,5.832,1.455,9.23,102.2702,5.093,6.234,31.38,0,109.8,13.47,5.86,281.4
"2009-03-24 00:43:30",737705,8.35,324.5,4.972,0.826,10.29,102.2965,5.16,6.301,31.56,0,109.8,13.47,5.93,286.5
"2009-03-24 00:44:00",737706,7.608,324.7,4.676,0.884,10.33,102.298,5.164,6.34,31.66,0,109.8,13.47,5.93,286.7
"2009-03-24 00:44:30",737707,7.46,304.7,6.836,1.427,8.49,102.3031,5.177,6.209,30.94,0,109.8,13.47,5.95,266.7
"2009-03-24 00:45:00",737708,8.64,301.8,5.837,1.359,7.312,102.3302,5.246,6.215,30.3,0,109.8,13.47,6.02,263.8
"2009-03-24 00:45:30",737709,6.589,312.8,13.86,0.829,6.927,102.3328,5.253,6.249,30.38,0,109.8,13.47,6.02,274.8
"2009-03-24 00:46:00",737710,8.04,326.4,11.17,1.969,9.38,102.3342,5.257,6.294,30.38,0,109.8,13.47,6.03,288.4
"2009-03-24 00:46:30",737711,10.8,331.9,6.987,1.039,10.84,102.3364,5.262,6.438,29.7,0,109.8,13.48,6.03,293.9
"2009-03-24 00:47:00",737712,10.72,332.2,4.974,1.008,10.66,102.348,5.292,6.451,29.44,0,109.8,13.48,6.06,294.2
"2009-03-24 00:47:30",737713,8.98,327,3.693,1.059,10.05,102.3534,5.306,6.482,29.28,0,109.8,13.48,6.08,289.0
"2009-03-24 00:48:00",737714,7.723,309,9.41,1.107,8.39,102.3628,5.33,6.395,29.56,0,109.8,13.48,6.10,271.0
"2009-03-24 00:48:30",737715,5.958,295.3,4.013,0.677,5.393,102.367,5.34,6.276,29.96,0,109.8,13.48,6.11,257.3
"2009-03-24 00:49:00",737716,8.65,314.9,11.93,1.968,6.169,102.3681,5.343,6.236,30.04,0,109.8,13.48,6.11,276.9
"2009-03-24 00:49:30",737717,11.96,326.5,8.25,1.363,10.05,102.3667,5.34,6.543,29.12,0,109.8,13.48,6.11,288.5
"2009-03-24 00:50:00",737718,13.25,322.1,4.4,0.74,11.1,102.3675,5.342,6.565,29.2,0,109.8,13.48,6.11,284.1
"2009-03-24 00:50:30",737719,13.83,325.6,6.185,0.955,10.82,102.367,5.34,6.567,28.88,0,109.8,13.48,6.11,287.6
"2009-03-24 00:51:00",737720,14.34,329.3,4.54,0.9,10.82,102.3667,5.34,6.57,28.82,0,109.8,13.48,6.11,291.3
"2009-03-24 00:51:30",737721,12.99,324.5,5.462,0.992,10.55,102.3687,5.345,6.583,28.52,0,109.8,13.48,6.12,286.5
"2009-03-24 00:52:00",737722,13.21,322.9,3.763,0.751,10.36,102.3729,5.355,6.599,28.93,0,109.8,13.48,6.13,284.9
"2009-03-24 00:52:30",737723,12.53,320.1,4.85,0.985,10.55,102.3834,5.382,6.625,29.44,0,109.8,13.48,6.15,282.1
"2009-03-24 00:53:00",737724,11.6,323.3,4.091,1.109,10.35,102.3916,5.403,6.617,28.22,0,109.8,13.48,6.17,285.3
"2009-03-24 00:53:30",737725,10.98,323.9,4.577,0.743,10.35,102.4003,5.426,6.642,27.66,0,109.8,13.48,6.20,285.9
"2009-03-24 00:54:00",737726,10,320.8,7.222,0.868,10.17,102.4017,5.429,6.636,27.49,0,109.8,13.48,6.20,282.8
"2009-03-24 00:54:30",737727,8.76,314.8,7.9,0.896,9.66,102.4015,5.428,6.637,27.95,0,109.8,13.48,6.20,276.8
"2009-03-24 00:55:00",737728,7.689,306.1,10.67,1.113,6.724,102.406,5.44,6.506,27.94,0,109.8,13.48,6.21,268.1
"2009-03-24 00:55:30",737729,7.027,302.9,6.778,0.47,5.066,102.4205,5.477,6.366,27.92,0,109.8,13.51,6.25,264.9
"2009-03-24 00:56:00",737730,8.97,307.2,5.411,1.566,7.38,102.4233,5.484,6.521,27.89,0,109.8,13.48,6.26,269.2
"2009-03-24 00:56:30",737731,9.64,324,6.734,1.05,10.05,102.43,5.501,6.624,27.74,0,109.8,13.48,6.27,286.0
"2009-03-24 00:57:00",737732,8.97,324,4.776,0.927,10.87,102.4362,5.517,6.713,27.59,0,109.8,13.48,6.29,286.0
"2009-03-24 00:57:30",737733,9.65,312.3,10.68,1.486,10.97,102.4348,5.514,6.758,27.7,0,109.8,13.48,6.28,274.3
"2009-03-24 00:58:00",737734,10.82,306.4,4.154,0.826,10.43,102.4357,5.516,6.766,28.05,0,109.8,13.48,6.29,268.4
"2009-03-24 00:58:30",737735,8.88,313.1,7.479,1.28,8.94,102.4377,5.521,6.694,28.04,0,109.8,13.47,6.29,275.1
"2009-03-24 00:59:00",737736,7.438,299.6,3.37,0.258,5.47,102.4416,5.531,6.5,27.98,0,109.8,13.51,6.30,261.6
"2009-03-24 00:59:30",737737,8.58,306.6,7.298,1.045,7.786,102.4535,5.561,6.611,27.82,0,109.8,13.47,6.33,268.6
"2009-03-24 01:00:00",737738,7.861,301.3,7.292,0.995,8.33,102.4631,5.586,6.731,27.93,0,109.8,13.47,6.36,263.3
"2009-03-24 01:00:30",737739,9.46,311.7,6.764,0.965,10.66,102.4685,5.6,6.818,28.16,0,109.8,13.48,6.37,273.7
"2009-03-24 01:01:00",737740,10.18,317.2,5.552,0.895,10.84,102.4705,5.605,6.817,27.95,0,109.8,13.48,6.38,279.2
"2009-03-24 01:01:30",737741,10.92,308.8,5.724,0.614,10.51,102.469,5.601,6.813,28.06,0,109.8,13.47,6.37,270.8
"2009-03-24 01:02:00",737742,10.5,303.9,5.87,1.27,9.28,102.4705,5.605,6.783,28.19,0,109.8,13.47,6.38,265.9
"2009-03-24 01:02:30",737743,9.71,309.9,7.879,1.917,7.632,102.4713,5.607,6.638,28.2,0,109.8,13.47,6.38,271.9
"2009-03-24 01:03:00",737744,9.18,316.9,5.845,1.218,8.16,102.4724,5.61,6.796,28.55,0,109.9,13.48,6.38,278.9
"2009-03-24 01:03:30",737745,9.32,314.1,7.412,1.266,9.34,102.4809,5.631,6.797,28.83,0,109.8,13.48,6.40,276.1
"2009-03-24 01:04:00",737746,8.85,313.8,6.894,0.806,10.64,102.4851,5.642,6.88,29.07,0,109.8,13.48,6.41,275.8
"2009-03-24 01:04:30",737747,8.31,301.6,6.861,0.949,9.6,102.4902,5.655,6.792,29.5,0,109.9,13.48,6.43,263.6
"2009-03-24 01:05:00",737748,8.14,300.6,6.822,1.157,9.09,102.4919,5.66,6.812,29.25,0,109.8,13.48,6.43,262.6
"2009-03-24 01:05:30",737749,6.882,292.2,4.391,0.891,6.09,102.4947,5.667,6.701,28.82,0,109.8,13.48,6.44,254.2
"2009-03-24 01:06:00",737750,8.05,298,9.65,1.463,6.962,102.4939,5.664,6.626,29.36,0,109.8,13.48,6.44,260.0
"2009-03-24 01:06:30",737751,9.51,311.4,10.05,1.577,9.4,102.4939,5.664,6.831,29.27,0,109.8,13.48,6.44,273.4
"2009-03-24 01:07:00",737752,8.2,311.5,5.709,1.501,10.17,102.497,5.673,6.9,29.41,0,109.8,13.48,6.44,273.5
"2009-03-24 01:07:30",737753,8.39,299.8,5.753,0.7,10.47,102.4956,5.669,6.873,30.02,0,109.8,13.48,6.44,261.8
"2009-03-24 01:08:00",737754,7.625,299.6,6.304,1.262,8.19,102.4942,5.665,6.849,30.06,0,109.9,13.48,6.44,261.6
"2009-03-24 01:08:30",737755,7.486,301.1,6.405,1.105,6.979,102.4956,5.669,6.749,30.44,0,109.8,13.48,6.44,263.1
"2009-03-24 01:09:00",737756,7.447,301,1.619,0.216,5.435,102.4939,5.665,6.676,30.65,0,109.8,13.48,6.44,263.0
"2009-03-24 01:09:30",737757,12.66,315.7,6.329,2.11,9.02,102.4908,5.657,6.851,30.34,0,109.8,13.48,6.43,277.7
"2009-03-24 01:10:00",737758,14.24,314.1,6.053,2.146,10.47,102.4758,5.618,6.907,29.84,0,109.8,13.48,6.39,276.1
"2009-03-24 01:10:30",737759,10.21,321.9,9.27,1.952,10.37,102.469,5.601,6.92,29.94,0,109.9,13.48,6.37,283.9
"2009-03-24 01:11:00",737760,13.89,323.5,5.866,0.965,10.03,102.4702,5.604,6.909,30.08,0,109.8,13.48,6.38,285.5
"2009-03-24 01:11:30",737761,13.57,317.9,4.58,1.084,10.04,102.4453,5.54,6.868,30.58,0,109.8,13.48,6.31,279.9
"2009-03-24 01:12:00",737762,14.04,317.4,3.793,0.864,10.03,102.4354,5.515,6.851,29.17,0,109.8,13.48,6.29,279.4
"2009-03-24 01:12:30",737763,14,320,3.292,0.578,9.92,102.4383,5.522,6.818,28.89,0,109.8,13.48,6.29,282.0
"2009-03-24 01:13:00",737764,13.48,318.6,3.882,0.538,9.9,102.436,5.517,6.821,29.17,0,109.9,13.48,6.29,280.6
"2009-03-24 01:13:30",737765,13.35,318.3,4.389,0.708,9.88,102.4269,5.494,6.828,29.02,0,109.8,13.48,6.26,280.3
"2009-03-24 01:14:00",737766,13.11,313.7,3.435,0.784,9.84,102.4114,5.454,6.777,28.78,0,109.8,13.48,6.22,275.7
"2009-03-24 01:14:30",737767,13.14,311.3,3.752,0.465,10.12,102.4049,5.437,6.771,28.33,0,109.8,13.47,6.21,273.3
"2009-03-24 01:15:00",737768,12.31,312.2,4.797,0.721,9.71,102.4021,5.43,6.751,28.32,0,109.9,13.47,6.20,274.2
"2009-03-24 01:15:30",737769,12.15,311.4,4.984,0.654,9.48,102.3874,5.393,6.724,28.54,0,109.8,13.47,6.16,273.4
"2009-03-24 01:16:00",737770,12.04,311.1,4.174,0.687,9.24,102.371,5.351,6.711,28.69,0,109.8,13.47,6.12,273.1
"2009-03-24 01:16:30",737771,12.61,313.6,3.033,0.766,9,102.369,5.345,6.693,29.18,0,109.8,13.47,6.12,275.6
"2009-03-24 01:17:00",737772,13.2,318,2.963,0.798,8.96,102.3707,5.35,6.676,29.54,0,109.8,13.47,6.12,280.0
"2009-03-24 01:17:30",737773,13.15,318.2,2.442,0.835,9.08,102.3617,5.327,6.651,29.71,0,109.8,13.47,6.10,280.2
"2009-03-24 01:18:00",737774,13.43,316,4.72,0.673,9.33,102.3484,5.293,6.647,29.66,0,109.8,13.47,6.06,278.0
"2009-03-24 01:18:30",737775,13.99,315.1,4.24,0.761,9.28,102.3391,5.269,6.62,29.51,0,109.8,13.47,6.04,277.1
"2009-03-24 01:19:00",737776,14.12,316.5,4.513,0.734,9.24,102.338,5.266,6.625,29.79,0,109.8,13.47,6.04,278.5
"2009-03-24 01:19:30",737777,13.68,316.9,3.443,0.636,9.25,102.3343,5.257,6.608,30.08,0,109.8,13.47,6.03,278.9
"2009-03-24 01:20:00",737778,13.65,314.6,4.375,0.605,9.32,102.3103,5.196,6.573,30.21,0,109.8,13.47,5.97,276.6
"2009-03-24 01:20:30",737779,13.4,311.6,4.113,0.621,9.49,102.304,5.18,6.551,30.18,0,109.8,13.48,5.95,273.6
"2009-03-24 01:21:00",737780,13.86,310.4,4.721,0.45,9.49,102.3049,5.182,6.528,29.87,0,109.8,13.48,5.95,272.4
"2009-03-24 01:21:30",737781,12.96,312.4,3.83,0.769,9.22,102.3021,5.175,6.502,29.85,0,109.8,13.48,5.94,274.4
"2009-03-24 01:22:00",737782,11.85,317.2,6.268,0.831,9.33,102.2843,5.129,6.506,30.07,0,109.8,13.48,5.90,279.2
"2009-03-24 01:22:30",737783,13.25,310.8,3.566,0.667,9.3,102.2733,5.101,6.472,30.14,0,109.8,13.48,5.87,272.8
"2009-03-24 01:23:00",737784,12.82,305.8,4.976,0.811,9.15,102.2727,5.1,6.456,30.22,0,109.9,13.48,5.87,267.8
"2009-03-24 01:23:30",737785,13.05,309.3,4.805,0.464,9.18,102.2693,5.091,6.436,30.25,0,109.8,13.48,5.86,271.3
"2009-03-24 01:24:00",737786,12.64,307.9,3.171,0.777,8.96,102.2577,5.061,6.423,30.34,0,109.8,13.48,5.83,269.9
"2009-03-24 01:24:30",737787,12.67,303.9,3.337,0.879,9.01,102.2413,5.019,6.378,30.44,0,109.8,13.48,5.79,265.9
"2009-03-24 01:25:00",737788,11.93,305.9,3.911,0.743,8.8,102.2388,5.013,6.365,30.55,0,109.8,13.48,5.78,267.9
"2009-03-24 01:25:30",737789,12.36,310.6,4.128,0.72,8.72,102.2385,5.012,6.345,30.66,0,109.8,13.48,5.78,272.6
"2009-03-24 01:26:00",737790,12.21,311.1,3.785,0.779,8.74,102.2272,4.983,6.31,30.64,0,109.8,13.48,5.75,273.1
"2009-03-24 01:26:30",737791,12.23,307.2,3.905,0.549,8.89,102.2063,4.93,6.305,30.72,0,109.8,13.48,5.70,269.2
"2009-03-24 01:27:00",737792,11.6,307.9,4.583,0.558,8.75,102.2049,4.926,6.287,30.67,0,109.8,13.48,5.70,269.9
"2009-03-24 01:27:30",737793,11.12,306.9,3.74,0.971,8.64,102.2049,4.926,6.272,30.84,0,109.8,13.48,5.70,268.9
"2009-03-24 01:28:00",737794,10.61,305.4,5.008,1.03,7.718,102.2049,4.926,6.188,30.98,0,109.8,13.48,5.70,267.4
"2009-03-24 01:28:30",737795,8.75,305.9,4.615,0.907,5.6,102.1978,4.908,6.136,31.03,0,109.8,13.48,5.68,267.9
"2009-03-24 01:29:00",737796,8.88,302.8,6.768,1.304,6.178,102.1772,4.856,5.948,30.97,0,109.9,13.48,5.62,264.8
"2009-03-24 01:29:30",737797,9.38,307.8,7.306,1.37,7.851,102.171,4.84,6.151,31.29,0,109.8,13.48,5.61,269.8
"2009-03-24 01:30:00",737798,10.1,311.1,5.794,0.836,9.1,102.171,4.84,6.163,31.45,0,109.9,13.48,5.61,273.1
"2009-03-24 01:30:30",737799,10.07,304.7,4.709,1.079,9.15,102.171,4.84,6.148,31.55,0,109.8,13.48,5.61,266.7
"2009-03-24 01:31:00",737800,8.88,304.8,6.061,1.048,9.01,102.1707,4.839,6.144,31.58,0,109.8,13.48,5.61,266.8
"2009-03-24 01:31:30",737801,8.47,301.3,5.109,0.92,8.75,102.1653,4.825,6.122,31.65,0,109.8,13.48,5.59,263.3
"2009-03-24 01:32:00",737802,8.44,308.5,6.075,1.194,7.414,102.1548,4.799,6.021,31.65,0,109.8,13.48,5.57,270.5
"2009-03-24 01:32:30",737803,6.565,300.3,6.717,1.091,5.465,102.1489,4.783,5.83,31.54,0,109.8,13.48,5.55,262.3
"2009-03-24 01:33:00",737804,5.91,307.4,6.782,1.035,5.866,102.1376,4.755,5.934,31.8,0,109.8,13.48,5.52,269.4
"2009-03-24 01:33:30",737805,7.846,322,7.248,0.881,9.18,102.137,4.753,6.057,31.96,0,109.8,13.48,5.52,284.0
"2009-03-24 01:34:00",737806,7.826,310.5,6.141,0.829,9.64,102.137,4.753,6.091,31.95,0,109.8,13.48,5.52,272.5
"2009-03-24 01:34:30",737807,7.635,329.4,4.311,0.865,9.31,102.137,4.753,6.085,31.95,0,109.8,13.48,5.52,291.4
"2009-03-24 01:35:00",737808,5.883,315.6,7.173,0.967,6.235,102.1362,4.751,5.855,31.82,0,109.8,13.48,5.52,277.6
"2009-03-24 01:35:30",737809,7.107,313.6,4.555,0.672,5.147,102.1308,4.737,5.75,31.79,0,109.8,13.48,5.51,275.6
"2009-03-24 01:36:00",737810,7.066,321.6,7.141,0.701,5.944,102.1249,4.722,5.872,31.97,0,109.8,13.49,5.49,283.6
"2009-03-24 01:36:30",737811,8.56,337.7,7.384,0.93,9.31,102.1195,4.708,6.037,32.22,0,109.8,13.49,5.48,299.7
"2009-03-24 01:37:00",737812,8.38,335.3,3.605,0.822,9.94,102.1096,4.683,6.07,32.29,0,109.8,13.49,5.45,297.3
"2009-03-24 01:37:30",737813,7.328,332.2,3.603,0.838,9.52,102.1042,4.669,6.037,32.32,0,109.8,13.49,5.44,294.2
"2009-03-24 01:38:00",737814,6.05,325.2,5.944,1.008,6.159,102.1031,4.666,5.825,32.14,0,109.8,13.49,5.43,287.2
"2009-03-24 01:38:30",737815,6.401,324.1,6.582,1.024,6.563,102.1031,4.666,5.853,32.21,0,109.8,13.49,5.43,286.1
"2009-03-24 01:39:00",737816,5.453,325.9,5.686,1.1,5.242,102.1031,4.666,5.789,32.19,0,109.8,13.49,5.43,287.9
"2009-03-24 01:39:30",737817,8.56,344.1,4.345,1.284,9.46,102.1031,4.666,6.01,32.39,0,109.8,13.5,5.43,306.1
"2009-03-24 01:40:00",737818,8.44,336.6,4.34,0.862,10.02,102.1031,4.666,6.019,32.36,0,109.8,13.5,5.43,298.6
"2009-03-24 01:40:30",737819,8.29,339.6,4.222,0.623,9.79,102.1031,4.666,6.012,32.36,0,109.8,13.5,5.43,301.6
"2009-03-24 01:41:00",737820,7.573,336.1,6.732,1.248,8.3,102.1031,4.666,5.888,32.15,0,109.8,13.49,5.43,298.1
"2009-03-24 01:41:30",737821,5.533,323.5,4.345,0.74,5.554,102.1031,4.666,5.84,31.93,0,109.8,13.5,5.43,285.5
"2009-03-24 01:42:00",737822,5.612,321,6.507,1.354,6.337,102.1031,4.666,5.7,31.73,0,109.8,13.5,5.43,283.0
"2009-03-24 01:42:30",737823,5.889,320.9,6.438,1.233,7.382,102.1031,4.666,5.93,31.98,0,109.8,13.5,5.43,282.9
"2009-03-24 01:43:00",737824,6.748,322.1,5.084,0.795,9.82,102.1031,4.666,6,32.06,0,109.8,13.5,5.43,284.1
"2009-03-24 01:43:30",737825,6.412,318.8,4.688,1.001,9.42,102.1031,4.666,5.997,32.06,0,109.8,13.5,5.43,280.8
"2009-03-24 01:44:00",737826,4.858,313.4,5.731,1.073,6.236,102.1031,4.666,5.803,31.81,0,109.8,13.5,5.43,275.4
"2009-03-24 01:44:30",737827,5.621,319.4,6.53,1.116,6.321,102.1031,4.666,5.745,31.81,0,109.8,13.5,5.43,281.4
"2009-03-24 01:45:00",737828,5.265,318.5,4.772,0.948,5.772,102.1031,4.666,5.848,31.91,0,109.8,13.5,5.43,280.5
"2009-03-24 01:45:30",737829,6.429,320,8.25,1.231,8.14,102.1031,4.666,5.823,31.87,0,109.8,13.5,5.43,282.0
"2009-03-24 01:46:00",737830,6.785,319.8,3.935,0.599,10.03,102.1031,4.666,5.976,31.86,0,109.7,13.5,5.43,281.8
"2009-03-24 01:46:30",737831,6.149,317.7,4.921,0.84,9.6,102.1031,4.666,5.998,31.76,0,109.8,13.5,5.43,279.7
"2009-03-24 01:47:00",737832,5.506,317.5,8.26,1.258,7.575,102.1031,4.666,5.798,31.64,0,109.8,13.49,5.43,279.5
"2009-03-24 01:47:30",737833,4.505,306.1,1.484,0.163,4.671,102.1031,4.666,5.697,31.45,0,109.8,13.52,5.43,268.1
"2009-03-24 01:48:00",737834,5.42,310.9,8.29,1.378,7.138,102.1031,4.666,5.863,31.56,0,109.8,13.49,5.43,272.9
"2009-03-24 01:48:30",737835,5.571,312.3,7.049,1.212,7.354,102.1031,4.666,5.849,31.57,0,109.8,13.49,5.43,274.3
"2009-03-24 01:49:00",737836,5.357,315.6,7.371,0.876,9.42,102.1031,4.666,5.985,31.66,0,109.7,13.49,5.43,277.6
"2009-03-24 01:49:30",737837,5.504,308.1,5.336,1.148,8.28,102.1031,4.666,5.957,31.66,0,109.8,13.5,5.43,270.1